Weather History for KTTN - September, 2011

Change the Weather History Date:

Thursday, September 1, 2011

  Actual Average Record
Temperature  
Mean Temperature 72 °F 71 °F  
Max Temperature 82 °F 81 °F 97 °F (2010)
Min Temperature 62 °F 62 °F 50 °F (1986)
Degree Days  
Heating Degree Days 0 0  
Month to date heating degree days 0 0  
Since 1 July heating degree days 0 3  
Cooling Degree Days 7 6  
Month to date cooling degree days 7 6  
Year to date cooling degree days 1248 862  
Growing Degree Days 22 (Base 50)    
Moisture  
Dew Point 59 °F    
Average Humidity 66    
Maximum Humidity 93    
Minimum Humidity 39    
Precipitation  
Precipitation 0.00 in 0.12 in 3.84 in (1940)
Month to date precipitation 0.00 0.12  
Year to date precipitation 41.42 31.10  
Sea Level Pressure  
Sea Level Pressure 30.13 in    
Wind  
Wind Speed 4 mph (South)    
Max Wind Speed 14 mph    
Max Gust Speed 16 mph    
Visibility 10 miles    
Events      
T = Trace of Precipitation, MM = Missing Value Source: NWS Daily Summary

Daily Weather History Graph

Daily Weather History Graph

Search for Another Location

Airport or City:

Trip Planner

Search our weather history database for the weather conditions in past years. The results will help you decide how hot, cold, wet, or windy it might be!

Date:

Astronomy

Sep. 01, 2011 Rise Set
Actual Time 6:26 AM EDT 7:31 PM EDT
Civil Twilight 5:58 AM EDT 7:59 PM EDT
Nautical Twilight 5:25 AM EDT 8:32 PM EDT
Astronomical Twilight 4:50 AM EDT 9:07 PM EDT
Moon 10:44 AM EDT (9/1) 9:19 PM EDT (9/1)
Length of Visible Light 14h 00m
Length of Day
13h 05m
Waxing Crescent, 17% of the Moon is Illuminated
Sep 1
Waxing Crescent
Sep 4
First Quarter
Sep 12
Full
Sep 20
Last Quarter
Sep 27
New

Hourly Weather History & Observations

Time (EDT) Temp. Heat Index Dew Point Humidity Pressure Visibility Wind Dir Wind Speed Gust Speed Precip Events Conditions
12:53 AM 66.9 °F - 61.0 °F 81% 30.17 in 10.0 mi NNW 3.5 mph - N/A   Clear
1:53 AM 66.0 °F - 61.0 °F 84% 30.16 in 10.0 mi Calm Calm - N/A   Clear
2:53 AM 64.9 °F - 60.1 °F 84% 30.15 in 10.0 mi NNW 4.6 mph - N/A   Clear
3:53 AM 64.0 °F - 60.1 °F 87% 30.16 in 10.0 mi Calm Calm - N/A   Clear
4:53 AM 63.0 °F - 59.0 °F 87% 30.15 in 10.0 mi Calm Calm - N/A   Clear
5:53 AM 63.0 °F - 59.0 °F 87% 30.15 in 10.0 mi Calm Calm - N/A   Clear
6:53 AM 63.0 °F - 60.1 °F 90% 30.16 in 8.0 mi Calm Calm - N/A   Clear
7:53 AM 66.0 °F - 61.0 °F 84% 30.16 in 10.0 mi Calm Calm - N/A   Clear
8:53 AM 71.1 °F - 62.1 °F 73% 30.17 in 10.0 mi Calm Calm - N/A   Clear
9:53 AM 75.9 °F - 62.1 °F 62% 30.17 in 10.0 mi Calm Calm - N/A   Clear
10:53 AM 78.1 °F - 60.1 °F 54% 30.17 in 10.0 mi Variable 5.8 mph - N/A   Clear
11:53 AM 80.1 °F 80.4 °F 57.0 °F 45% 30.15 in 10.0 mi Variable 3.5 mph - N/A   Clear
12:53 PM 81.0 °F 81.0 °F 57.0 °F 44% 30.13 in 10.0 mi SW 8.1 mph - N/A   Clear
1:53 PM 81.0 °F 80.5 °F 54.0 °F 39% 30.13 in 10.0 mi South 5.8 mph - N/A   Clear
2:53 PM 81.0 °F 80.8 °F 55.9 °F 42% 30.11 in 10.0 mi South 6.9 mph - N/A   Clear
3:53 PM 80.6 °F 80.5 °F 55.4 °F 42% 30.11 in 10.0 mi SSW 9.2 mph - N/A   Clear
4:53 PM 81.0 °F 80.8 °F 55.9 °F 42% 30.08 in 10.0 mi South 10.4 mph - N/A   Clear
5:53 PM 79.0 °F - 57.0 °F 47% 30.08 in 10.0 mi SSE 5.8 mph - N/A   Clear
6:53 PM 75.9 °F - 60.1 °F 58% 30.07 in 10.0 mi SSE 10.4 mph - N/A   Clear
7:53 PM 73.0 °F - 59.0 °F 61% 30.08 in 10.0 mi SSE 5.8 mph - N/A   Clear
8:53 PM 69.8 °F - 60.8 °F 73% 30.11 in 10.0 mi SSE 4.6 mph - N/A   Mostly Cloudy
9:53 PM 69.1 °F - 61.0 °F 75% 30.10 in 10.0 mi SSE 4.6 mph - N/A   Mostly Cloudy
10:53 PM 68.0 °F - 60.1 °F 76% 30.10 in 10.0 mi SSE 4.6 mph - N/A   Mostly Cloudy
11:53 PM 68.0 °F - 61.0 °F 78% 30.10 in 10.0 mi SE 3.5 mph - N/A   Overcast